This demonstration page uses our WeatherBlox Daily Observations layout. Learn more.

39.92423, -83.80882

Hourly Observations for October 20, 2020

Temp ( °F °C ) Dew Point ( °F °C ) Humidity (%) Winds ( mph kmh ) Pressure ( in mb ) Visibility ( mi km ) Precip ( " mm )
12:56 am 00:56 Cloudy with Light Rain 51 10.6 51 10.6 100 100 ENE 6 9 30.12 1020 5 8.0467 0.02 0.508
1:56 am 01:56 Cloudy with Light Rain 49 9.4 49 9.4 100 100 NNE 7 11 30.12 1020 4 6.43736 0.02 0.508
2:10 am 02:10 Cloudy with Light Rain 48 9 48 9 100 100 NNE 8 13 30.13 1020 2.5 4.02335 0.001 0.001
2:19 am 02:19 Cloudy with Light Rain 48 9 48 9 100 100 NNE 8 13 30.14 1021 3 4.82802 0.001 0.001
2:30 am 02:30 Cloudy with Light Rain 48 9 48 9 100 100 N 7 11 30.15 1021 2.5 4.02335 0.001 0.001
2:56 am 02:56 Cloudy with Light Rain 48 8.9 48 8.9 100 100 NNE 7 11 30.14 1021 3 4.82802 0.01 0.254
3:45 am 03:45 Cloudy with Light Rain 46 8 46 8 100 100 NNE 10 17 30.14 1021 10 16.0934 0.01 0.254
3:56 am 03:56 Cloudy with Light Rain 47 8.3 47 8.3 100 100 NE 9 15 30.12 1020 7 11.26538 0.01 0.254
4:56 am 04:56 Cloudy with Rain 47 8.3 47 8.3 100 100 N 8 13 30.14 1021 7 11.26538 0.02 0.508
5:56 am 05:56 Cloudy with Light Rain 46 7.8 46 7.8 100 100 NE 7 11 30.14 1021 8 12.87472 0.001 0.001
6:24 am 06:24 Cloudy with Light Rain 46 8 46 8 100 100 NE 8 13 30.15 1021 4 6.43736 0.01 0.254
6:36 am 06:36 Cloudy with Light Rain 46 8 46 8 100 100 ENE 7 11 30.16 1021 2.5 4.02335 0.01 0.254
6:48 am 06:48 Cloudy with Light Rain 46 8 46 8 100 100 NE 9 15 30.16 1021 3 4.82802 0.02 0.508
6:56 am 06:56 Cloudy with Light Rain 47 8.3 47 8.3 100 100 NE 9 15 30.16 1021 5 8.0467 0.02 0.508
7:56 am 07:56 Cloudy with Light Rain 47 8.3 47 8.3 100 100 N 7 11 30.19 1023 5 8.0467 0.01 0.254
8:56 am 08:56 Cloudy 47 8.3 47 8.3 100 100 NNE 8 13 30.21 1023 10 16.0934 0.01 0.254
9:06 am 09:06 Cloudy 46 8 46 8 100 100 NE 9 15 30.22 1023 10 16.0934 0 0
9:56 am 09:56 Cloudy 47 8.3 47 8.3 100 100 NNE 10 17 30.23 1024 10 16.0934 0.01 0.254
10:56 am 10:56 Cloudy 49 9.4 49 9.4 100 100 NE 10 17 30.23 1024 10 16.0934 0.01 0.254
11:56 am 11:56 Cloudy with Mist and Fog 50 10 50 10 100 100 ENE 9 15 30.24 1024 4 6.43736 0.01 0.254
12:56 pm 12:56 Cloudy with Mist and Fog 51 10.6 51 10.6 100 100 ENE 10 17 30.22 1024 6 9.65604 0.01 0.254
1:56 pm 13:56 Cloudy with Light Rain 52 11.1 52 11.1 100 100 NE 8 13 30.21 1023 3 4.82802 0.001 0.001
2:04 pm 14:04 Cloudy with Mist and Fog 52 11 52 11 100 100 NE 9 15 30.21 1023 2.5 4.02335 0.001 0.001
2:42 pm 14:42 Cloudy with Mist and Fog 52 11 52 11 100 100 ENE 9 15 30.2 1023 1.75 2.816345 0.01 0.254
2:56 pm 14:56 Cloudy with Mist and Fog 52 11.1 52 11.1 100 100 ENE 8 13 30.2 1023 2 3.21868 0.01 0.254
3:07 pm 15:07 Cloudy with Mist and Fog 52 11 52 11 100 100 E 9 15 30.2 1023 5 8.0467 0.01 0.254
3:56 pm 15:56 Cloudy 52 11.1 52 11.1 100 100 E 8 13 30.2 1023 7 11.26538 0.01 0.254
4:28 pm 16:28 Cloudy 54 12 54 12 100 100 E 10 17 30.17 1022 7 11.26538 0 0
4:56 pm 16:56 Cloudy 53 11.7 53 11.7 100 100 E 7 11 30.19 1022 10 16.0934 0.01 0.254
5:07 pm 17:07 Cloudy 54 12 54 12 100 100 E 8 13 30.17 1022 10 16.0934 0 0
5:56 pm 17:56 Cloudy with Mist and Fog 53 11.7 53 11.7 100 100 E 7 11 30.18 1022 5 8.0467 0.01 0.254
6:52 pm 18:52 Cloudy with Mist and Fog 54 12 54 12 100 100 ESE 6 9 30.16 1021 2.5 4.02335 0 0
6:56 pm 18:56 Cloudy with Mist and Fog 53 11.7 53 11.7 100 100 ESE 7 11 30.17 1022 2.5 4.02335 0 0
7:10 pm 19:10 Cloudy with Mist and Fog 54 12 54 12 100 100 ESE 7 11 30.16 1021 4 6.43736 0 0
7:56 pm 19:56 Cloudy with Mist and Fog 53 11.7 53 11.7 100 100 ESE 7 11 30.18 1022 3 4.82802 0.01 0.254
8:56 pm 20:56 Cloudy with Mist and Fog 53 11.7 53 11.7 100 100 ESE 6 9 30.16 1021 5 8.0467 0.01 0.254
9:56 pm 21:56 Cloudy with Light Rain 54 12.2 54 12.2 100 100 SE 10 17 30.13 1020 9 14.48406 0.001 0.001
10:56 pm 22:56 Cloudy 55 12.8 55 12.8 100 100 SE 6 9 30.12 1020 7 11.26538 0.01 0.254
11:56 pm 23:56 Cloudy with Mist and Fog 56 13.3 56 13.3 100 100 SE 3 6 30.12 1020 5 8.0467 0 0

Powered by AerisWeather